Location: Byszew
(52.1813°N, 19.2693°E)
Time: 04:10:38
(UTC+00:00)

Cosmos 2360 Rocket - Visible Passes

Search period start: 06 October 2022 00:00
Search period end: 16 October 2022 00:00
Orbit: 835 x 844 km, 71.0° (Epoch: 05 October)

Date Brightness Start Highest point End Pass type
(mag) Time Alt. Az. Time Alt. Az. Time Alt. Az.
06 Oct 4.8 00:39:50 10° NNW 00:43:14 16° NNE 00:46:38 10° ENE visible
06 Oct 3.3 02:23:22 10° NNW 02:28:47 44° NE 02:34:08 10° ESE visible
06 Oct 2.6 04:07:31 10° NW 04:12:47 42° WSW 04:18:01 10° S visible
06 Oct 3.0 17:20:53 10° SSE 17:25:33 27° ESE 17:30:15 10° NE visible
06 Oct 2.5 19:03:34 10° SW 19:09:11 64° NW 19:14:48 10° NNE visible
06 Oct 4.5 20:50:15 10° WNW 20:54:19 20° NNW 20:58:25 10° NNE visible
06 Oct 5.1 22:39:05 10° NNW 22:40:44 11° N 22:42:24 10° NNE visible
07 Oct 4.8 00:24:03 10° NNW 00:27:22 16° NNE 00:30:41 10° ENE visible
07 Oct 3.4 02:07:35 10° NNW 02:12:57 42° NE 02:18:17 10° ESE visible
07 Oct 2.5 03:51:42 10° NW 03:57:01 44° WSW 04:02:18 10° S visible
07 Oct 3.1 17:05:14 10° SSE 17:09:48 26° ESE 17:14:24 10° NE visible
07 Oct 2.5 18:47:45 10° SW 18:53:22 67° NW 18:59:01 10° NNE visible
07 Oct 4.5 20:34:18 10° W 20:38:28 20° NNW 20:42:38 10° NNE visible
07 Oct 5.1 22:23:09 10° NNW 22:24:51 11° N 22:26:34 10° NNE visible
08 Oct 4.9 00:08:17 10° NNW 00:11:30 15° NNE 00:14:42 10° ENE visible
08 Oct 3.4 01:51:48 10° NNW 01:57:07 40° NE 02:02:25 10° ESE visible
08 Oct 2.4 03:35:53 10° NW 03:41:15 47° WSW 03:46:35 10° S visible
08 Oct 3.2 16:49:36 10° SSE 16:54:03 25° ESE 16:58:32 10° NE visible
08 Oct 2.4 18:31:56 10° SW 18:37:34 70° NW 18:43:13 10° NNE visible
08 Oct 4.4 20:18:22 10° W 20:22:37 21° NNW 20:26:51 10° NNE visible
08 Oct 5.1 22:07:13 10° NNW 22:08:58 11° N 22:10:44 10° NNE visible
08 Oct 4.9 23:52:30 10° NNW 23:55:38 15° NNE 23:58:45 10° NE visible
09 Oct 3.5 01:36:02 10° NNW 01:41:18 39° NE 01:46:32 10° ESE visible
09 Oct 2.3 03:20:04 10° NW 03:25:29 49° WSW 03:30:51 10° S visible
09 Oct 3.3 16:33:58 10° SSE 16:38:18 23° ESE 16:42:39 10° NE visible
09 Oct 2.3 18:16:07 10° SW 18:21:46 74° WNW 18:27:26 10° NNE visible
09 Oct 4.4 20:02:26 10° W 20:06:45 22° NW 20:11:05 10° NNE visible
09 Oct 5.1 21:51:16 10° NNW 21:53:05 11° N 21:54:53 10° NNE visible
09 Oct 4.9 23:36:43 10° NNW 23:39:45 14° NNE 23:42:47 10° NE visible
10 Oct 3.5 01:20:15 10° NNW 01:25:29 37° NE 01:30:40 10° ESE visible
10 Oct 2.3 03:04:15 10° NW 03:09:42 52° WSW 03:15:07 10° S visible
10 Oct 2.3 18:00:19 10° SW 18:05:58 77° WNW 18:11:38 10° NNE visible
10 Oct 4.4 19:46:31 10° W 19:50:54 23° NW 19:55:17 10° NNE visible
10 Oct 5.1 21:35:18 10° NNW 21:37:12 12° N 21:39:04 10° NNE visible
10 Oct 4.9 23:20:56 10° NNW 23:23:52 14° NNE 23:26:48 10° NE visible
11 Oct 3.6 01:04:28 10° NNW 01:09:39 36° NE 01:14:47 10° ESE visible
11 Oct 2.2 02:48:26 10° NW 02:53:55 55° WSW 02:59:22 10° S visible
11 Oct 2.3 17:44:30 10° SSW 17:50:10 81° WNW 17:55:51 10° NNE visible
11 Oct 4.3 19:30:35 10° W 19:35:02 23° NW 19:39:31 10° NNE visible
11 Oct 5.1 21:19:21 10° NNW 21:21:18 12° N 21:23:15 10° NNE visible
11 Oct 4.9 23:05:09 10° NNW 23:08:00 14° NNE 23:10:50 10° NE visible
12 Oct 3.6 00:48:41 10° NNW 00:53:49 34° NE 00:58:54 10° ESE visible
12 Oct 2.1 02:34:56 25° NW 02:38:08 59° WSW 02:43:38 10° SSE visible
12 Oct 3.9 04:19:55 10° W 04:20:56 10° W 04:21:56 10° WSW visible
12 Oct 2.2 17:28:42 10° SSW 17:34:22 85° WNW 17:40:03 10° NNE visible
12 Oct 4.3 19:14:40 10° W 19:19:12 24° NW 19:23:44 10° NNE visible
12 Oct 5.0 21:03:24 10° NNW 21:05:25 12° N 21:07:26 10° N visible
12 Oct 4.9 22:49:21 10° NNW 22:51:09 13° N 22:51:09 13° N visible
13 Oct 4.7 00:42:27 13° ESE 00:42:27 13° ESE 00:43:02 10° ESE visible
13 Oct 2.9 02:24:28 37° S 02:24:28 37° S 02:27:52 10° SSE visible
13 Oct 4.0 04:06:28 11° WSW 04:06:28 11° WSW 04:06:51 10° WSW visible
13 Oct 2.2 17:12:54 10° SSW 17:18:34 89° NW 17:24:15 10° NNE visible
13 Oct 4.2 18:58:45 10° W 19:03:21 25° NW 19:07:58 10° NNE visible
13 Oct 5.0 20:47:26 10° NNW 20:49:31 12° N 20:51:37 10° N visible
13 Oct 5.0 22:33:34 10° NNW 22:34:43 12° N 22:34:43 12° N visible
14 Oct 2.2 16:57:07 10° SSW 17:02:46 87° ESE 17:08:27 10° NNE visible
14 Oct 4.2 18:42:49 10° W 18:47:30 26° NW 18:52:11 10° NNE visible
14 Oct 5.0 20:31:27 10° NW 20:33:38 12° NNW 20:35:49 10° N visible
14 Oct 5.0 22:17:47 10° NNW 22:18:39 12° N 22:18:39 12° N visible
15 Oct 2.2 16:41:20 10° SSW 16:46:58 83° ESE 16:52:38 10° NNE visible
15 Oct 4.1 18:26:55 10° W 18:31:39 27° NW 18:36:24 10° NNE visible
15 Oct 4.9 20:15:29 10° NW 20:17:45 12° NNW 20:20:01 10° N visible
15 Oct 5.0 22:01:59 10° N 22:02:45 11° N 22:02:45 11° N visible
